This demonstration page uses our WeatherBlox Daily Observations layout. Learn more.

Left ArrowRight Arrow

53.62937, 11.41316

Hourly Observations for April 15, 2021

Temp ( °F °C ) Dew Point ( °F °C ) Humidity (%) Winds ( mph kmh ) Pressure ( in mb ) Visibility ( mi km ) Precip ( " mm )
7:50 am 07:50 Mostly Sunny 30 -1 27 -3 86 86 W 3 6 30.42 1030 7 11 N/A
8:20 am 08:20 Mostly Sunny 32 undefined 28 -2 87 87 VRB 2 4 30.42 1030 7 11 N/A
8:50 am 08:50 Mostly Sunny 37 3 32 undefined 81 81 WNW 3 6 30.42 1030 7 11 N/A
9:20 am 09:20 Mostly Sunny 41 5 36 2 81 81 NNW 3 6 30.42 1030 7 11 N/A
9:50 am 09:50 Mostly Sunny 43 6 34 1 71 71 N 5 7 30.42 1030 7 11 N/A
10:20 am 10:20 Mostly Sunny 45 7 30 -1 57 57 NNE 9 15 30.42 1030 30 48 N/A
10:50 am 10:50 Mostly Sunny 46 8 30 -1 53 53 NNE 10 17 30.45 1031 30 48 N/A
11:20 am 11:20 Mostly Sunny 46 8 32 undefined 57 57 N 10 17 30.42 1030 30 48 N/A
11:50 am 11:50 Mostly Sunny 46 8 28 -2 50 50 NNE 10 17 30.42 1030 30 48 N/A
12:20 pm 12:20 Mostly Sunny 48 9 28 -2 46 46 NE 12 19 30.42 1030 30 48 N/A
12:50 pm 12:50 Mostly Sunny 48 9 25 -4 40 40 N 10 17 30.42 1030 30 48 N/A
1:20 pm 13:20 Mostly Sunny 48 9 23 -5 37 37 N 13 20 30.42 1030 7 11 N/A
1:50 pm 13:50 Mostly Sunny 48 9 27 -3 43 43 NNE 15 24 30.42 1030 7 11 N/A
2:20 pm 14:20 Mostly Sunny 48 9 30 -1 50 50 NNE 13 20 30.42 1030 7 11 N/A
2:50 pm 14:50 Mostly Sunny 46 8 30 -1 53 53 N 10 17 30.42 1030 7 11 N/A
3:20 pm 15:20 Mostly Sunny 48 9 27 -3 43 43 NNE 9 15 30.42 1030 30 48 N/A
3:50 pm 15:50 Mostly Sunny 48 9 23 -5 37 37 NE 14 22 30.39 1029 30 48 N/A
4:20 pm 16:20 Mostly Sunny 50 10 27 -3 40 40 NNE 12 19 30.39 1029 7 11 N/A
4:50 pm 16:50 Mostly Sunny 48 9 27 -3 43 43 NE 14 22 30.39 1029 7 11 N/A
5:20 pm 17:20 Mostly Sunny 48 9 23 -5 37 37 NE 14 22 30.39 1029 7 11 N/A
5:50 pm 17:50 Mostly Sunny 48 9 27 -3 43 43 N 12 19 30.39 1029 7 11 N/A
6:20 pm 18:20 Mostly Sunny 48 9 25 -4 40 40 NNE 10 17 30.39 1029 7 11 N/A
6:50 pm 18:50 Mostly Sunny 46 8 27 -3 46 46 NNE 9 15 30.39 1029 7 11 N/A
7:20 pm 19:20 Mostly Sunny 46 8 25 -4 43 43 N 10 17 30.39 1029 7 11 N/A
7:50 pm 19:50 Mostly Sunny 46 8 25 -4 43 43 N 13 20 30.39 1029 7 11 N/A
8:20 pm 20:20 Mostly Clear 46 8 27 -3 46 46 N 9 15 30.39 1029 7 11 N/A
8:50 pm 20:50 Mostly Clear 45 7 28 -2 53 53 N 7 11 30.39 1029 7 11 N/A
9:20 pm 21:20 Mostly Clear 45 7 28 -2 53 53 N 8 13 30.39 1029 7 11 N/A
9:50 pm 21:50 Mostly Clear 45 7 28 -2 53 53 N 8 13 30.39 1029 7 11 N/A

Powered by AerisWeather